Showing default

COSMOS 2093, 20738

Orbit data source: Space-Track

COSMOS 2093, 20738 is a payload satellite owned by UNKS (CIS) in LEO that was launched on Wed, 08 Aug 1990 UTC via a TSIKLON-3 launch vehicle from the Plesetsk Missile And Space Complex (PKMTR). Payload-class satellites include a variety of spacecraft equipped with specific instruments for various scientific and technological missions. These include communications satellites like Starlink; space stations such as the ISS; scientific satellites like the Hubble; Earth observation satellites from companies like Planet Labs, Umbra, and HawkEye 360; GPS; miniature CubeSats for education and research; and military/defense satellites.

Loading next visibility...
Identifier
20738, 1990-070D
Orbit
LEO
Country
Flag of CISCIS
Related business
Manufacturer
NPO PM
Mission
Defense Communications
Bus & Motor
STRELA-3, Unknown motor
Mass
225 kg wet, 225 kg dry
Launch date (UTC)
1990-08-08 (35 years ago)
Launch vehicle
TSIKLON-3
Launch site
Plesetsk Missile And Space Complex (PKMTR)
Object type
Payload
Rocket body
Debris
Shape & HBR
Cyl, 0.8 m
Radar Cross Section
1.257 m², Large (>1 m²)

Expand to show TLE details & history
Last TLE update: 14 hours ago

TLE from 14 hours ago
0 COSMOS 2093
1 20738U 90070D   25308.87692539  .00000008  00000-0 -12453-4 0  9991
2 20738  82.5728  84.5762 0007999 254.9415 273.9277 12.64087665626039
Epoch: 2025-11-04T21:02Z
TLE epoch observation values (Epoch: 2025-11-04T21:02:46.353Z)
Latitude
11.08182°
Longitude
-96.93043°
Altitude
1,407.679 km
Speed
7.157 km/s
True Right ascension
17h 32m 28s
True Declination
11° 01' 21"
Sunlit
Object was in daylight at epoch
Visualization orbit readout
Latitude
Unknown
Longitude
Unknown
Altitude
Unknown
Speed
Unknown
Apparent Right ascension
Unknown
Apparent Declination
Unknown
Sunlit
N/A
Visualization observer readout
Local Sidereal Time
06:50:05
Azimuth
Unknown
Elevation
Unknown
Doppler factor
Unknown
Orbital elements
Apogee altitude
1,409.661 km
Perigee altitude
1,397.212 km
Semi-major axis
7,781.573 km
Eccentricity
0.0008
Inclination
82.5728°
RAAN
84.5762°
Arg. of periapsis
254.9415°
True anomaly
273.83625°
Mean anomaly
273.9277°
Eccentric anomaly
273.88197°
Mean motion
3.16186 °/min
Orbital period
113.86 mins
BSTAR
-0.000012453
Loading maneuver chart data...
Computing Atmospheric mass density...
Loading historical data...
Loading historical data...
Loading historical data...
Loading historical data...
Loading historical data...
Loading historical data...
Loading historical data...

Documentation

Showing up to 5 results
|